Devils Lake, ND

9:07 PM CDT on June 25, 2017 (GMT -0500)
Devils Lake Municipal

Weather History for KDVL - October, 2013

Change the Weather History Date:

Wednesday, October 30, 2013

  Actual Average Record
Temperature  
Mean Temperature 37 °F -  
Max Temperature 41 °F 46 °F 76 °F (1950)
Min Temperature 33 °F 27 °F 2 °F (1991)
Degree Days  
Heating Degree Days 28    
Moisture  
Dew Point 26 °F    
Average Humidity 66    
Maximum Humidity 75    
Minimum Humidity 60    
Precipitation  
Precipitation 0.00 in - - ()
Sea Level Pressure  
Sea Level Pressure 29.85 in    
Wind  
Wind Speed 7 mph (SSW)    
Max Wind Speed 16 mph    
Max Gust Speed -    
Visibility 10 miles    
Events      
Averages and records for this station are not official NWS values.
T = Trace of Precipitation, MM = Missing Value Source: NWS Daily Summary

Daily Weather History Graph

Daily Weather History Graph

Search for Another Location

Airport or City:

Trip Planner

Search our weather history database for the weather conditions in past years. The results will help you decide how hot, cold, wet, or windy it might be!

Date:

Astronomy

Oct. 30, 2013 Rise Set
Actual Time 8:18 AM CDT 6:19 PM CDT
Civil Twilight 7:45 AM CDT 6:52 PM CDT
Nautical Twilight 7:09 AM CDT 7:28 PM CDT
Astronomical Twilight 6:32 AM CDT 8:04 PM CDT
Moon 3:50 AM CDT (10/30) 4:21 PM CDT (10/30)
Length of Visible Light 11h 06m
Length of Day
10h 01m
Waning Crescent, 17% of the Moon is Illuminated
Oct 30
Waning Crescent
Nov 3
New
Nov 9
First Quarter
Nov 17
Full
Nov 25
Last Quarter

Hourly Weather History & Observations

Time (CDT) Temp. Windchill Dew Point Humidity Pressure Visibility Wind Dir Wind Speed Gust Speed Precip Events Conditions
12:15 AM 33.8 °F 28.6 °F 21.2 °F 60% 30.06 in 10.0 mi South 5.8 mph - N/A   Overcast
12:35 AM 33.8 °F 28.6 °F 21.2 °F 60% 30.05 in 10.0 mi South 5.8 mph - N/A   Overcast
12:55 AM 33.8 °F 28.6 °F 21.2 °F 60% 30.05 in 10.0 mi South 5.8 mph - N/A   Overcast
1:15 AM 33.8 °F 27.0 °F 21.2 °F 60% 30.04 in 10.0 mi SSW 8.1 mph - N/A   Overcast
1:35 AM 33.8 °F 27.0 °F 21.2 °F 60% 30.04 in 10.0 mi South 8.1 mph - N/A   Overcast
1:55 AM 33.8 °F 27.0 °F 21.2 °F 60% 30.04 in 10.0 mi South 8.1 mph - N/A   Overcast
2:15 AM 33.8 °F 27.7 °F 21.2 °F 60% 30.03 in 10.0 mi SSW 6.9 mph - N/A   Overcast
2:35 AM 33.8 °F 26.4 °F 21.2 °F 60% 30.02 in 10.0 mi SSW 9.2 mph - N/A   Overcast
2:55 AM 33.8 °F 25.3 °F 21.2 °F 60% 30.02 in 10.0 mi SW 11.5 mph - N/A   Overcast
3:15 AM 33.8 °F 26.4 °F 21.2 °F 60% 30.01 in 10.0 mi SW 9.2 mph - N/A   Overcast
3:35 AM 33.8 °F 25.8 °F 23.0 °F 65% 30.00 in 10.0 mi WSW 10.4 mph - N/A   Overcast
3:55 AM 33.8 °F 26.4 °F 23.0 °F 65% 30.00 in 10.0 mi SW 9.2 mph - N/A   Overcast
4:15 AM 33.8 °F 27.0 °F 23.0 °F 65% 29.99 in 10.0 mi WSW 8.1 mph - N/A   Overcast
4:35 AM 33.8 °F 27.7 °F 23.0 °F 65% 29.98 in 10.0 mi WSW 6.9 mph - N/A   Overcast
4:55 AM 33.8 °F 27.7 °F 23.0 °F 65% 29.98 in 10.0 mi WSW 6.9 mph - N/A   Overcast
5:15 AM 33.8 °F 28.6 °F 23.0 °F 65% 29.97 in 10.0 mi SW 5.8 mph - N/A   Overcast
5:35 AM 33.8 °F 29.6 °F 23.0 °F 65% 29.96 in 10.0 mi WSW 4.6 mph - N/A   Overcast
5:55 AM 33.8 °F 30.8 °F 23.0 °F 65% 29.95 in 10.0 mi WSW 3.5 mph - N/A   Overcast
6:15 AM 33.8 °F 30.8 °F 24.8 °F 70% 29.94 in 10.0 mi SW 3.5 mph - N/A   Overcast
6:35 AM 33.8 °F 28.6 °F 24.8 °F 70% 29.95 in 10.0 mi South 5.8 mph - N/A   Overcast
6:55 AM 33.8 °F 28.6 °F 24.8 °F 70% 29.94 in 10.0 mi South 5.8 mph - N/A   Overcast
7:15 AM 33.8 °F 28.6 °F 23.0 °F 65% 29.94 in 10.0 mi South 5.8 mph - N/A   Overcast
7:35 AM 33.8 °F 28.6 °F 23.0 °F 65% 29.93 in 10.0 mi SSE 5.8 mph - N/A   Overcast
7:55 AM 33.8 °F 28.6 °F 24.8 °F 70% 29.92 in 10.0 mi South 5.8 mph - N/A   Overcast
8:15 AM 33.8 °F 29.6 °F 24.8 °F 70% 29.92 in 10.0 mi South 4.6 mph - N/A   Overcast
8:35 AM 33.8 °F - 24.8 °F 70% 29.92 in 10.0 mi Calm Calm - N/A   Overcast
8:55 AM 33.8 °F 29.6 °F 24.8 °F 70% 29.92 in 10.0 mi WSW 4.6 mph - N/A   Overcast
9:15 AM 35.6 °F 29.2 °F 24.8 °F 65% 29.92 in 10.0 mi SW 8.1 mph - N/A   Overcast
9:35 AM 35.6 °F 30.7 °F 24.8 °F 65% 29.92 in 10.0 mi WSW 5.8 mph - N/A   Overcast
9:55 AM 35.6 °F 31.7 °F 24.8 °F 65% 29.91 in 10.0 mi SW 4.6 mph - N/A   Overcast
10:15 AM 35.6 °F 30.7 °F 26.6 °F 70% 29.90 in 10.0 mi South 5.8 mph - N/A   Overcast
10:35 AM 35.6 °F 30.7 °F 26.6 °F 70% 29.90 in 10.0 mi SSW 5.8 mph - N/A   Overcast
10:55 AM 35.6 °F 29.9 °F 26.6 °F 70% 29.90 in 10.0 mi South 6.9 mph - N/A   Overcast
11:15 AM 35.6 °F 29.9 °F 26.6 °F 70% 29.89 in 10.0 mi SSW 6.9 mph - N/A   Overcast
11:35 AM 35.6 °F 29.9 °F 26.6 °F 70% 29.89 in 10.0 mi SW 6.9 mph - N/A   Overcast
11:55 AM 37.4 °F 31.4 °F 26.6 °F 65% 29.89 in 10.0 mi South 8.1 mph - N/A   Overcast
12:15 PM 37.4 °F 30.8 °F 26.6 °F 65% 29.89 in 10.0 mi South 9.2 mph - N/A   Overcast
12:35 PM 37.4 °F 30.3 °F 26.6 °F 65% 29.88 in 10.0 mi SSW 10.4 mph - N/A   Overcast
12:55 PM 37.4 °F 32.1 °F 26.6 °F 65% 29.86 in 10.0 mi SSW 6.9 mph - N/A   Overcast
1:15 PM 37.4 °F 30.3 °F 26.6 °F 65% 29.85 in 10.0 mi SSW 10.4 mph - N/A   Overcast
1:35 PM 39.2 °F 32.5 °F 28.4 °F 65% 29.83 in 10.0 mi SSW 10.4 mph - N/A   Overcast
1:55 PM 39.2 °F 33.6 °F 28.4 °F 65% 29.81 in 10.0 mi SW 8.1 mph - N/A   Overcast
2:15 PM 39.2 °F 33.0 °F 28.4 °F 65% 29.80 in 10.0 mi SW 9.2 mph - N/A   Overcast
2:35 PM 39.2 °F 33.0 °F 28.4 °F 65% 29.79 in 10.0 mi SW 9.2 mph - N/A   Overcast
2:55 PM 39.2 °F 33.6 °F 28.4 °F 65% 29.77 in 10.0 mi WSW 8.1 mph - N/A   Overcast
3:15 PM 41.0 °F 37.1 °F 28.4 °F 61% 29.76 in 10.0 mi SW 5.8 mph - N/A   Overcast
3:35 PM 41.0 °F 35.8 °F 28.4 °F 61% 29.75 in 10.0 mi SW 8.1 mph - N/A   Overcast
3:55 PM 41.0 °F 35.8 °F 28.4 °F 61% 29.75 in 10.0 mi SW 8.1 mph - N/A   Overcast
4:15 PM 41.0 °F 36.4 °F 28.4 °F 61% 29.75 in 10.0 mi SSW 6.9 mph - N/A   Overcast
4:35 PM 41.0 °F 38.0 °F 28.4 °F 61% 29.74 in 10.0 mi SSW 4.6 mph - N/A   Mostly Cloudy
4:55 PM 41.0 °F 36.4 °F 30.2 °F 65% 29.73 in 10.0 mi SSW 6.9 mph - N/A   Scattered Clouds
5:15 PM 41.0 °F 37.1 °F 30.2 °F 65% 29.72 in 10.0 mi SSW 5.8 mph - N/A   Partly Cloudy
5:35 PM 41.0 °F 36.4 °F 30.2 °F 65% 29.72 in 10.0 mi South 6.9 mph - N/A   Mostly Cloudy
5:55 PM 41.0 °F 35.8 °F 30.2 °F 65% 29.72 in 10.0 mi South 8.1 mph - N/A   Overcast
6:15 PM 41.0 °F 36.4 °F 30.2 °F 65% 29.71 in 10.0 mi South 6.9 mph - N/A   Overcast
6:35 PM 41.0 °F 36.4 °F 30.2 °F 65% 29.70 in 10.0 mi South 6.9 mph - N/A   Overcast
6:55 PM 41.0 °F 35.2 °F 30.2 °F 65% 29.70 in 10.0 mi South 9.2 mph - N/A   Overcast
7:15 PM 41.0 °F 35.8 °F 30.2 °F 65% 29.70 in 10.0 mi SSW 8.1 mph - N/A   Overcast
7:35 PM 41.0 °F 35.8 °F 30.2 °F 65% 29.69 in 10.0 mi SSW 8.1 mph - N/A   Overcast
7:55 PM 41.0 °F 34.7 °F 30.2 °F 65% 29.69 in 10.0 mi SW 10.4 mph - N/A   Overcast
8:15 PM 41.0 °F 35.2 °F 30.2 °F 65% 29.67 in 10.0 mi SW 9.2 mph - N/A   Overcast
8:35 PM 39.2 °F 33.6 °F 30.2 °F 70% 29.67 in 10.0 mi WSW 8.1 mph - N/A   Overcast
8:55 PM 41.0 °F 34.7 °F 30.2 °F 65% 29.68 in 10.0 mi SW 10.4 mph - N/A   Overcast
9:15 PM 41.0 °F 34.7 °F 32.0 °F 70% 29.68 in 10.0 mi SSW 10.4 mph - N/A   Overcast
9:35 PM 39.2 °F 30.5 °F 32.0 °F 75% 29.68 in 10.0 mi SW 16.1 mph - N/A   Overcast
9:55 PM 39.2 °F 31.6 °F 30.2 °F 70% 29.67 in 10.0 mi SW 12.7 mph - N/A   Overcast
10:15 PM 39.2 °F 31.2 °F 30.2 °F 70% 29.67 in 10.0 mi SW 13.8 mph - N/A   Overcast
10:35 PM 39.2 °F 32.5 °F 30.2 °F 70% 29.66 in 10.0 mi WSW 10.4 mph - N/A   Overcast
10:55 PM 39.2 °F 33.6 °F 30.2 °F 70% 29.65 in 10.0 mi WSW 8.1 mph - N/A   Overcast
11:15 PM 39.2 °F 33.0 °F 30.2 °F 70% 29.64 in 10.0 mi WSW 9.2 mph - N/A   Overcast
11:35 PM 39.2 °F 33.6 °F 30.2 °F 70% 29.64 in 10.0 mi WSW 8.1 mph - N/A   Overcast
11:55 PM 39.2 °F 33.6 °F 30.2 °F 70% 29.63 in 10.0 mi SW 8.1 mph - N/A   Overcast